Regional Weather Roundup
Issued by NWS Little Rock, AR

Home | Current Version | Previous Version | Graphics & Text | Print | Product List | Glossary On
Versions: 1 2 3 4 5 6 7 8 9 10 11 12 13 14 15 16 17 18 19 20 21 22 23 24 25 26 27 28 29 30 31 32 33 34 35 36 37 38 39 40 41 42 43 44 45 46 47 48 49 50
000
ASUS44 KLZK 280205
RWRLZK

WEATHER ROUNDUP FOR ARKANSAS
NATIONAL WEATHER SERVICE LITTLE ROCK AR
900 PM CDT SUN JUL 27 2014

NOTE: "FAIR" INDICATES FEW OR NO CLOUDS BELOW 12,000 FEET WITH NO
SIGNIFICANT WEATHER AND/OR OBSTRUCTIONS TO VISIBILITY.

ARZ001-003-010-029-280300-
NORTHWEST ARKANSAS

CITY           SKY/WX    TMP DP  RH WIND       PRES   REMARKS
FAYETTEVILLE   CLOUDY    80  56  43 CALM      30.04F
FORT SMITH     MOCLDY    88  70  55 CALM      29.98S HX  93
HARRISON       CLOUDY    78  64  61 NW7       30.04F
BENTONVILLE    CLOUDY    79  61  53 W7        30.06R
ROGERS         CLOUDY    77  61  57 SW3       30.05S
SILOAM SPGS    CLOUDY    75  61  60 NW5       30.06R
HIGHFILL       CLOUDY    78  61  55 W8        30.05R
SPRINGDALE     PTCLDY    81  57  44 CALM      30.05F
$$

ARZ004-005-016-280300-
NORTH CENTRAL ARKANSAS

CITY           SKY/WX    TMP DP  RH WIND       PRES   REMARKS
BATESVILLE     PTCLDY    82  75  78 W3        29.95S HX  89
FLIPPIN        MOCLDY    82  63  51 W3        30.01R
MTN HOME       MOCLDY    80  63  55 VRB3      30.00R
$$

ARZ040-041-280300-
WEST CENTRAL ARKANSAS

CITY           SKY/WX    TMP DP  RH WIND       PRES   REMARKS
MENA           MOCLDY    84  73  70 CALM      30.04S HX  91
MOUNT IDA      CLOUDY    81  78  91 CALM      30.00R HX  89
$$

ARZ009-017-025-026-028-280300-
NORTHEAST ARKANSAS

CITY           SKY/WX    TMP DP  RH WIND       PRES   REMARKS
CORNING        FAIR      82  68  61 NW7       29.93R HX  85
JONESBORO      MOCLDY    83  76  79 W3        29.92S HX  91
NEWPORT        PTCLDY    83  77  82 NW8       29.94F HX  92
WALNUT RIDGE   PTCLDY    84  75  74 W7        29.92S HX  92
BLYTHEVILLE    PTCLDY    84  78  82 W6        29.91S HX  95
$$

ARZ022-023-033-042-044-280300-
CENTRAL ARKANSAS

CITY           SKY/WX    TMP DP  RH WIND       PRES   REMARKS
LITTLE ROCK    MOCLDY    87  78  74 NW5       29.96S HX 100
N LITTLE ROCK  MOCLDY    85  71  64 NW3       29.96S HX  90
JACKSONVILLE   MOCLDY    83  64  52 W2        29.96S HX  85
SEARCY         MOCLDY    85  80  85 CALM      29.95F HX  99
HOT SPRINGS    CLOUDY    82  76  81 CALM      30.01R THUNDER HX  89
RUSSELLVILLE   MOCLDY    83  78  85 CALM      29.97R HX  93
CLINTON        FAIR      79  75  89 CALM      29.97S
$$

ARZ036-280300-
EAST ARKANSAS

CITY           SKY/WX    TMP DP  RH WIND       PRES   REMARKS
WEST MEMPHIS   MOCLDY    86  80  82 SW3       29.92S HX 101
$$

ARZ050-053-066-070-073-280300-
SOUTHWEST ARKANSAS

CITY           SKY/WX    TMP DP  RH WIND       PRES   REMARKS
ARKADELPHIA    FAIR      85  83  94 CALM      29.99R HX 104
CAMDEN         MOCLDY    82  75  78 CALM      29.98R HX  89
TEXARKANA      MOCLDY    87  76  69 CALM      30.00R HX  97
EL DORADO      MOCLDY    82  78  88 CALM      30.00R HX  91
DE QUEEN       MOCLDY    81  73  76 N10G24    30.00R HX  86
$$

ARZ056-057-069-280300-
SOUTHEAST ARKANSAS

CITY           SKY/WX    TMP DP  RH WIND       PRES   REMARKS
PINE BLUFF     LGT RAIN  85  78  80 SW5       29.97R HX  96
STUTTGART      CLEAR     84  79  84 SW6       29.96S HX  96
MONTICELLO     PTCLDY    85  75  72 W3        29.98R HX  93

$$





USA.gov is the U.S. government's official web portal to all federal, state and local government web resources and services.